Terminal Aerodrome Forecast
Issued by NWS Milwaukee/Sullivan, WI

Home | Current Version | Previous Version | Text Only | Print | Product List | Glossary On
Versions: 1 2 3 4 5 6 7 8 9 10 11 12 13 14 15 16 17 18 19 20 21 22 23 24 25 26 27 28 29 30 31 32 33 34 35 36 37 38 39 40 41
000
FTUS43 KMKX 282049 AAA
TAFMSN
TAF AMD
KMSN 282049Z 2821/2918 20008KT P6SM SKC
     FM290600 18009KT P6SM SCT250
     FM290900 19012G21KT P6SM BKN200 WS020/20050KT
     FM291400 19014G24KT 6SM -RAPL OVC025
     FM291600 19020G31KT 3SM -RA BR OVC020=

USA.gov is the U.S. government's official web portal to all federal, state and local government web resources and services.